GW2646 Weather Reports


time (UTC)temp
C
wind
direction
speed
KPH
gust
KPH
rain 1hr
cm
rain 24hr
cm
rain mn
cm
humidity
%
barometer
mb
20260506165546 12 0 0.0 8.0 0.00 0.00 0.00 92 1019.5
20260506165046 12 165 1.6 8.0 0.00 0.00 0.00 92 1019.5
20260506164615 12 0 0.0 8.0 0.00 0.00 0.00 92 1019.3
20260506164048 12 165 3.2 8.0 0.00 0.00 0.00 92 1019.5
20260506163545 12 0 0.0 8.0 0.00 0.00 0.00 92 1019.6
20260506163108 12 0 3.2 8.0 0.00 0.00 0.00 92 1019.7
20260506162547 12 165 1.6 8.0 0.00 0.00 0.00 92 1019.7
20260506162046 12 165 3.2 11.3 0.00 0.00 0.00 92 1019.6
20260506161553 12 198 1.6 11.3 0.00 0.00 0.00 92 1019.4
20260506161047 12 0 1.6 6.4 0.00 0.00 0.00 92 1019.4
20260506160547 12 197 1.6 11.3 0.00 0.00 0.00 92 1019.3
20260506160107 12 188 4.8 11.3 0.00 0.00 0.00 92 1019.1
20260506155545 12 157 3.2 11.3 0.00 0.00 0.00 93 1019.2
20260506155046 11 187 0.0 11.3 0.00 0.00 0.00 93 1019.2
20260506154557 11 159 1.6 11.3 0.00 0.00 0.00 93 1018.9
20260506154048 11 145 3.2 11.3 0.00 0.00 0.00 93 1018.9
20260506153549 11 156 3.2 8.0 0.00 0.00 0.00 94 1018.9
20260506153054 11 0 1.6 8.0 0.00 0.00 0.00 94 1018.8
20260506152546 11 175 1.6 8.0 0.00 0.00 0.00 94 1018.8
20260506152048 11 180 0.0 8.0 0.00 0.00 0.00 94 1018.8
20260506151553 11 0 3.2 8.0 0.00 0.00 0.00 94 1018.8
20260506151045 11 0 1.6 4.8 0.00 0.00 0.00 94 1019.0
20260506150545 11 0 0.0 3.2 0.00 0.00 0.00 94 1019.1
20260506150103 11 0 0.0 4.8 0.00 0.00 0.00 94 1019.1
20260506145546 11 0 0.0 6.4 0.00 0.00 0.00 94 1019.2
20260506145045 11 0 0.0 6.4 0.00 0.00 0.00 94 1019.2
20260506144553 11 0 1.6 6.4 0.00 0.00 0.00 94 1019.1
20260506144045 11 0 1.6 6.4 0.00 0.00 0.00 95 1018.8
20260506143545 11 214 0.0 6.4 0.00 0.00 0.00 95 1018.8
20260506143051 11 215 0.0 4.8 0.00 0.00 0.00 95 1018.7
20260506142548 11 215 0.0 6.4 0.00 0.00 0.00 95 1018.8
20260506142043 11 214 0.0 6.4 0.00 0.00 0.00 95 1018.9
20260506141552 11 215 0.0 4.8 0.00 0.00 0.00 95 1018.8
20260506141045 11 0 0.0 4.8 0.00 0.00 0.00 95 1018.7
20260506140546 11 0 1.6 4.8 0.00 0.00 0.00 94 1018.8
20260506140056 11 214 0.0 4.8 0.00 0.00 0.00 95 1018.7
20260506135546 11 0 0.0 4.8 0.00 0.00 0.00 95 1018.8
20260506135045 11 0 0.0 3.2 0.00 0.00 0.00 95 1018.7
20260506134555 11 214 0.0 4.8 0.00 0.00 0.00 95 1018.7
20260506134048 11 0 0.0 4.8 0.00 0.00 0.00 95 1018.7
20260506133546 11 215 0.0 4.8 0.00 0.00 0.00 95 1018.8
20260506133106 11 215 0.0 4.8 0.00 0.00 0.00 95 1018.8
20260506132544 11 0 0.0 4.8 0.00 0.00 0.00 95 1018.7
20260506132046 11 214 0.0 4.8 0.00 0.00 0.00 95 1018.9
20260506131606 11 215 0.0 4.8 0.00 0.00 0.00 95 1018.6
20260506131045 11 0 0.0 3.2 0.00 0.00 0.00 95 1018.8
20260506130545 11 215 0.0 1.6 0.00 0.00 0.00 95 1018.7
20260506130051 10 0 0.0 1.6 0.00 0.00 0.00 95 1018.6
20260506125547 10 0 0.0 1.6 0.00 0.00 0.00 95 1018.4
20260506125044 10 0 0.0 3.2 0.00 0.00 0.00 95 1018.3
20260506124557 10 0 0.0 3.2 0.00 0.00 0.00 95 1018.2
20260506124046 10 0 0.0 0.0 0.00 0.00 0.00 95 1018.2
20260506123546 10 0 0.0 0.0 0.00 0.00 0.00 95 1018.2
20260506123057 10 0 0.0 1.6 0.00 0.00 0.00 95 1018.2
20260506122545 10 0 0.0 1.6 0.00 0.00 0.00 95 1018.3
20260506122045 10 0 0.0 1.6 0.00 0.00 0.00 95 1018.3
20260506121556 10 0 0.0 1.6 0.00 0.00 0.00 95 1018.3
20260506121045 10 0 0.0 3.2 0.00 0.00 0.00 95 1018.4
20260506120545 10 0 0.0 4.8 0.00 0.00 0.00 95 1018.4
20260506115544 10 214 0.0 3.2 0.00 0.00 0.00 95 1018.2
20260506115046 10 0 0.0 3.2 0.00 0.00 0.00 95 1018.2
20260506114550 10 0 0.0 3.2 0.00 0.00 0.00 95 1018.2
20260506114051 10 0 0.0 3.2 0.00 0.00 0.00 95 1018.1
20260506113546 10 214 0.0 1.6 0.00 0.00 0.00 95 1018.1
20260506113051 10 0 0.0 1.6 0.00 0.00 0.00 95 1018.0
20260506112549 10 0 0.0 1.6 0.00 0.00 0.00 95 1018.0
20260506112044 10 0 0.0 1.6 0.00 0.00 0.00 95 1018.0
20260506111553 10 0 0.0 0.0 0.00 0.00 0.00 95 1017.9
20260506111047 10 0 0.0 0.0 0.00 0.00 0.00 95 1017.9
20260506110547 10 0 0.0 0.0 0.00 0.00 0.00 95 1017.7
20260506110100 10 0 0.0 0.0 0.00 0.00 0.00 95 1017.7
20260506105546 10 0 0.0 0.0 0.00 0.00 0.00 95 1017.6
20260506105047 10 0 0.0 0.0 0.00 0.00 0.00 95 1017.5
20260506104606 10 0 0.0 0.0 0.00 0.00 0.00 95 1017.6
20260506104044 10 0 0.0 0.0 0.00 0.00 0.00 95 1017.5
20260506103547 10 0 0.0 0.0 0.00 0.00 0.00 95 1017.4
20260506103050 10 0 0.0 0.0 0.00 0.00 0.00 95 1017.4
20260506102551 10 0 0.0 0.0 0.00 0.00 0.00 95 1017.1
20260506102049 10 0 0.0 0.0 0.00 0.00 0.00 95 1017.2
20260506101553 10 0 0.0 0.0 0.00 0.00 0.00 95 1017.3
20260506101046 10 0 0.0 0.0 0.00 0.00 0.00 95 1017.2
20260506100547 9 0 0.0 0.0 0.00 0.00 0.00 95 1017.2
20260506095548 9 0 0.0 0.0 0.00 0.00 0.00 95 1017.3
20260506095046 9 0 0.0 0.0 0.00 0.00 0.00 95 1017.2
20260506094602 9 0 0.0 0.0 0.00 0.00 0.00 95 1017.1
20260506094048 9 0 0.0 1.6 0.00 0.00 0.00 95 1017.1
20260506093545 9 0 0.0 1.6 0.00 0.00 0.00 95 1017.1
20260506093054 9 215 0.0 1.6 0.00 0.00 0.00 95 1017.0
20260506092545 9 0 0.0 0.0 0.00 0.00 0.00 94 1017.0
20260506092045 9 0 0.0 0.0 0.00 0.00 0.00 94 1017.0
20260506091552 9 0 0.0 0.0 0.00 0.00 0.00 94 1017.1
20260506091047 9 0 0.0 0.0 0.00 0.00 0.00 95 1017.0
20260506090547 9 0 0.0 0.0 0.00 0.00 0.00 94 1017.1
20260506090050 9 0 0.0 0.0 0.00 0.00 0.00 94 1017.1
20260506085547 9 0 0.0 0.0 0.00 0.00 0.00 94 1017.0
20260506085047 9 0 0.0 0.0 0.00 0.00 0.00 94 1016.9
20260506084618 9 0 0.0 0.0 0.00 0.00 0.00 94 1016.8
20260506084046 9 0 0.0 0.0 0.00 0.00 0.00 94 1016.8
20260506083546 9 0 0.0 0.0 0.00 0.00 0.00 94 1016.6
20260506083051 9 0 0.0 0.0 0.00 0.00 0.00 94 1016.6
20260506082545 9 0 0.0 0.0 0.00 0.00 0.00 94 1016.6
20260506082045 9 0 0.0 0.0 0.00 0.00 0.00 94 1016.6
20260506081557 9 0 0.0 0.0 0.00 0.00 0.00 94 1016.6
20260506081046 10 0 0.0 0.0 0.00 0.00 0.00 94 1016.6
20260506080546 10 0 0.0 0.0 0.00 0.00 0.00 93 1016.6
20260506073054 10 0 0.0 0.0 0.00 0.00 0.00 93 1016.3
20260506072547 10 0 0.0 0.0 0.00 0.00 0.00 93 1016.2
20260506072047 10 0 0.0 0.0 0.00 0.00 0.00 93 1016.3
20260506071557 10 0 0.0 0.0 0.00 0.00 0.00 93 1016.2
20260506071046 10 0 0.0 0.0 0.00 0.00 0.00 93 1016.3
20260506070546 10 0 0.0 0.0 0.00 0.00 0.00 92 1016.3
20260506062045 11 0 0.0 0.0 0.00 0.00 0.00 92 1016.2
20260506061601 11 0 0.0 0.0 0.00 0.00 0.00 92 1016.1
20260506061045 11 0 0.0 0.0 0.00 0.00 0.00 91 1016.0
20260506060547 11 0 0.0 0.0 0.00 0.00 0.00 91 1016.0
20260506051045 12 0 0.0 0.0 0.00 0.00 0.00 89 1015.5
20260506050545 12 0 0.0 0.0 0.00 0.00 0.00 89 1015.4
20260506045044 12 0 0.0 0.0 0.00 0.00 0.00 88 1015.4
20260506044553 13 0 0.0 0.0 0.00 0.00 0.00 87 1015.3
20260506044047 13 0 0.0 0.0 0.00 0.00 0.00 87 1015.4
20260506043547 13 0 0.0 0.0 0.00 0.00 0.00 86 1015.4
20260506043050 13 0 0.0 0.0 0.00 0.00 0.00 86 1015.3
20260506042547 13 0 0.0 0.0 0.00 0.00 0.00 85 1015.2
20260506042047 13 0 0.0 0.0 0.00 0.00 0.00 85 1015.2
20260506041605 14 0 0.0 1.6 0.00 0.00 0.00 84 1015.1
20260506041048 14 0 0.0 3.2 0.00 0.00 0.00 84 1015.0
20260506040545 14 0 0.0 3.2 0.00 0.00 0.00 84 1015.0
20260506040100 14 0 0.0 1.6 0.00 0.00 0.00 83 1014.9
20260506035545 15 0 0.0 4.8 0.00 0.00 0.00 83 1014.9
20260506035046 15 0 0.0 4.8 0.00 0.00 0.00 83 1015.0
20260506034556 15 0 0.0 4.8 0.00 0.00 0.00 82 1015.0
20260506034043 15 0 0.0 1.6 0.00 0.00 0.00 82 1015.0
20260506033545 15 0 0.0 1.6 0.00 0.00 0.00 81 1014.9
20260506033052 15 0 0.0 0.0 0.00 0.00 0.00 80 1014.9
20260506032545 15 0 0.0 0.0 0.00 0.00 0.00 79 1014.8
20260506032048 16 0 0.0 1.6 0.00 0.00 0.00 78 1014.8
20260506031555 16 0 0.0 1.6 0.00 0.00 0.00 76 1014.7
20260506031047 17 0 0.0 1.6 0.00 0.00 0.00 75 1014.8
20260506030547 17 0 0.0 3.2 0.00 0.00 0.00 74 1014.7
20260506030054 17 0 0.0 3.2 0.00 0.00 0.00 74 1014.7
20260506025547 17 0 0.0 3.2 0.00 0.00 0.00 73 1014.6
20260506025051 17 190 0.0 4.8 0.00 0.00 0.00 71 1014.6
20260506024556 18 190 0.0 4.8 0.00 0.00 0.00 71 1014.6
20260506024045 18 190 1.6 6.4 0.00 0.00 0.00 71 1014.6